| time (UTC) | temp F | wind direction | speed knots | gust knots | rain 1hr in | rain 24hr in | rain mn in | humidity % | barometer mb |
| 20260506012136 | 66 | 260 | 4.3 | 6.1 | 0.00 | 0.41 | 0.10 | 57 | 1014.1 |
| 20260506011616 | 65 | 283 | 4.3 | 6.1 | 0.00 | 0.41 | 0.10 | 57 | 1014.1 |
| 20260506011116 | 65 | 283 | 3.5 | 5.2 | 0.00 | 0.41 | 0.10 | 58 | 1014.1 |
| 20260506010616 | 65 | 260 | 6.1 | 10.4 | 0.00 | 0.41 | 0.10 | 56 | 1014.0 |
| 20260506010116 | 65 | 260 | 5.2 | 9.6 | 0.00 | 0.41 | 0.10 | 57 | 1014.0 |
| 20260506005616 | 65 | 260 | 4.3 | 7.0 | 0.00 | 0.41 | 0.10 | 57 | 1014.0 |
| 20260506005116 | 65 | 260 | 6.1 | 8.7 | 0.00 | 0.41 | 0.10 | 57 | 1014.0 |
| 20260506004616 | 65 | 238 | 7.0 | 10.4 | 0.00 | 0.41 | 0.10 | 57 | 1014.0 |
| 20260506004116 | 65 | 283 | 5.2 | 7.8 | 0.00 | 0.41 | 0.10 | 59 | 1014.0 |
| 20260506003616 | 65 | 260 | 2.6 | 3.5 | 0.00 | 0.41 | 0.10 | 59 | 1014.0 |
| 20260506003136 | 65 | 260 | 5.2 | 8.7 | 0.00 | 0.41 | 0.10 | 58 | 1014.0 |
| 20260506002656 | 66 | 260 | 5.2 | 7.8 | 0.00 | 0.41 | 0.10 | 58 | 1013.9 |
| 20260506002115 | 65 | 283 | 4.3 | 7.0 | 0.00 | 0.41 | 0.10 | 58 | 1013.9 |
| 20260506001616 | 65 | 260 | 6.1 | 7.8 | 0.00 | 0.41 | 0.10 | 58 | 1014.0 |
| 20260506001115 | 65 | 283 | 6.1 | 10.4 | 0.00 | 0.41 | 0.10 | 59 | 1014.0 |
| 20260506000656 | 65 | 283 | 5.2 | 7.8 | 0.00 | 0.41 | 0.10 | 58 | 1014.0 |
| 20260506000115 | 66 | 260 | 5.2 | 7.0 | 0.00 | 0.41 | 0.10 | 56 | 1014.0 |
| 20260505235616 | 65 | 260 | 4.3 | 6.1 | 0.00 | 0.41 | 0.10 | 58 | 1014.0 |
| 20260505235116 | 65 | 260 | 5.2 | 8.7 | 0.00 | 0.41 | 0.10 | 57 | 1014.1 |
| 20260505234616 | 65 | 305 | 3.5 | 5.2 | 0.00 | 0.41 | 0.10 | 57 | 1014.0 |
| 20260505234115 | 65 | 305 | 3.5 | 5.2 | 0.00 | 0.41 | 0.10 | 57 | 1014.1 |
| 20260505233636 | 65 | 283 | 6.1 | 8.7 | 0.00 | 0.41 | 0.10 | 56 | 1014.1 |
| 20260505233115 | 65 | 283 | 5.2 | 7.8 | 0.00 | 0.41 | 0.10 | 55 | 1014.1 |
| 20260505232616 | 65 | 305 | 2.6 | 6.1 | 0.00 | 0.41 | 0.10 | 56 | 1014.1 |
| 20260505232115 | 65 | 283 | 5.2 | 7.8 | 0.00 | 0.41 | 0.10 | 53 | 1014.1 |
| 20260505231616 | 66 | 283 | 6.1 | 8.7 | 0.00 | 0.41 | 0.10 | 52 | 1014.0 |
| 20260505231115 | 66 | 283 | 7.8 | 11.3 | 0.00 | 0.41 | 0.10 | 52 | 1014.0 |
| 20260505230616 | 66 | 260 | 4.3 | 7.0 | 0.00 | 0.41 | 0.10 | 51 | 1014.0 |
| 20260505230116 | 66 | 305 | 6.1 | 8.7 | 0.00 | 0.41 | 0.10 | 49 | 1014.0 |
| 20260505225615 | 66 | 305 | 5.2 | 8.7 | 0.00 | 0.41 | 0.10 | 48 | 1014.1 |
| 20260505225116 | 67 | 305 | 7.0 | 11.3 | 0.00 | 0.41 | 0.10 | 47 | 1014.1 |
| 20260505224635 | 67 | 305 | 5.2 | 8.7 | 0.00 | 0.41 | 0.10 | 50 | 1014.0 |
| 20260505224115 | 66 | 260 | 7.8 | 10.4 | 0.00 | 0.41 | 0.10 | 48 | 1014.1 |
| 20260505223615 | 67 | 283 | 6.1 | 10.4 | 0.00 | 0.41 | 0.10 | 49 | 1014.2 |
| 20260505223116 | 67 | 283 | 4.3 | 7.0 | 0.00 | 0.41 | 0.10 | 49 | 1014.2 |
| 20260505222616 | 66 | 283 | 7.0 | 10.4 | 0.00 | 0.41 | 0.10 | 49 | 1014.2 |
| 20260505222136 | 67 | 283 | 6.1 | 8.7 | 0.00 | 0.41 | 0.10 | 49 | 1014.2 |
| 20260505221656 | 68 | 283 | 5.2 | 7.8 | 0.00 | 0.41 | 0.10 | 49 | 1014.3 |
| 20260505221115 | 68 | 305 | 7.0 | 9.6 | 0.00 | 0.41 | 0.10 | 46 | 1014.4 |
| 20260505220635 | 68 | 260 | 5.2 | 7.8 | 0.00 | 0.41 | 0.10 | 49 | 1014.3 |
| 20260505220135 | 68 | 283 | 6.1 | 13.0 | 0.00 | 0.41 | 0.10 | 48 | 1014.3 |
| 20260505215616 | 69 | 283 | 6.1 | 10.4 | 0.00 | 0.41 | 0.10 | 48 | 1014.4 |
| 20260505215115 | 68 | 305 | 4.3 | 6.1 | 0.00 | 0.41 | 0.10 | 49 | 1014.4 |
| 20260505214615 | 68 | 305 | 6.1 | 10.4 | 0.00 | 0.41 | 0.10 | 49 | 1014.5 |
| 20260505214116 | 68 | 283 | 7.8 | 11.3 | 0.00 | 0.41 | 0.10 | 48 | 1014.5 |
| 20260505213615 | 68 | 283 | 6.1 | 8.7 | 0.00 | 0.41 | 0.10 | 46 | 1014.5 |
| 20260505213116 | 68 | 283 | 7.0 | 9.6 | 0.00 | 0.41 | 0.10 | 48 | 1014.6 |
| 20260505212636 | 68 | 238 | 4.3 | 5.2 | 0.00 | 0.41 | 0.10 | 48 | 1014.6 |
| 20260505212115 | 68 | 260 | 7.8 | 10.4 | 0.00 | 0.41 | 0.10 | 49 | 1014.6 |
| 20260505211615 | 68 | 283 | 7.8 | 11.3 | 0.00 | 0.41 | 0.10 | 50 | 1014.6 |
| 20260505211136 | 67 | 305 | 3.5 | 5.2 | 0.00 | 0.41 | 0.10 | 50 | 1014.6 |
| 20260505210615 | 67 | 283 | 7.0 | 9.6 | 0.00 | 0.41 | 0.10 | 51 | 1014.6 |
| 20260505210115 | 67 | 260 | 3.5 | 5.2 | 0.00 | 0.41 | 0.10 | 50 | 1014.6 |
| 20260505205616 | 67 | 260 | 4.3 | 7.0 | 0.00 | 0.41 | 0.10 | 49 | 1014.6 |
| 20260505205115 | 67 | 260 | 2.6 | 5.2 | 0.00 | 0.41 | 0.10 | 50 | 1014.6 |
| 20260505204615 | 67 | 283 | 4.3 | 7.8 | 0.00 | 0.41 | 0.10 | 51 | 1014.6 |
| 20260505204136 | 68 | 260 | 3.5 | 5.2 | 0.00 | 0.41 | 0.10 | 52 | 1014.6 |
| 20260505203636 | 67 | 260 | 3.5 | 6.1 | 0.00 | 0.41 | 0.10 | 51 | 1014.5 |
| 20260505203115 | 68 | 283 | 4.3 | 7.8 | 0.00 | 0.41 | 0.10 | 50 | 1014.5 |
| 20260505202615 | 68 | 260 | 6.1 | 9.6 | 0.00 | 0.41 | 0.10 | 51 | 1014.5 |
| 20260505202115 | 67 | 238 | 4.3 | 7.0 | 0.00 | 0.41 | 0.10 | 53 | 1014.6 |
| 20260505201655 | 67 | 283 | 5.2 | 7.8 | 0.00 | 0.41 | 0.10 | 52 | 1014.5 |
| 20260505201115 | 67 | 260 | 4.3 | 9.6 | 0.00 | 0.41 | 0.10 | 54 | 1014.6 |
| 20260505200615 | 67 | 283 | 5.2 | 7.8 | 0.00 | 0.41 | 0.10 | 52 | 1014.6 |
| 20260505200155 | 67 | 305 | 5.2 | 7.8 | 0.00 | 0.41 | 0.10 | 52 | 1014.7 |
| 20260505195615 | 67 | 260 | 5.2 | 8.7 | 0.00 | 0.41 | 0.10 | 53 | 1014.7 |
| 20260505195116 | 67 | 283 | 5.2 | 7.8 | 0.00 | 0.41 | 0.10 | 52 | 1014.7 |
| 20260505194615 | 67 | 260 | 7.0 | 10.4 | 0.00 | 0.41 | 0.10 | 51 | 1014.7 |
| 20260505194115 | 67 | 283 | 6.1 | 9.6 | 0.00 | 0.41 | 0.10 | 52 | 1014.8 |
| 20260505193615 | 67 | 283 | 7.0 | 10.4 | 0.00 | 0.41 | 0.10 | 52 | 1014.9 |
| 20260505193116 | 66 | 305 | 5.2 | 7.8 | 0.00 | 0.41 | 0.10 | 55 | 1014.9 |
| 20260505192615 | 66 | 283 | 5.2 | 7.8 | 0.00 | 0.41 | 0.10 | 55 | 1014.9 |
| 20260505192115 | 65 | 283 | 4.3 | 6.1 | 0.00 | 0.41 | 0.10 | 53 | 1015.0 |
| 20260505191615 | 66 | 260 | 2.6 | 3.5 | 0.00 | 0.41 | 0.10 | 54 | 1015.1 |
| 20260505191115 | 65 | 283 | 5.2 | 7.8 | 0.00 | 0.41 | 0.10 | 52 | 1015.1 |
| 20260505190615 | 65 | 260 | 5.2 | 7.0 | 0.00 | 0.41 | 0.10 | 52 | 1015.1 |
| 20260505190115 | 65 | 260 | 6.1 | 7.0 | 0.00 | 0.41 | 0.10 | 52 | 1015.1 |
| 20260505185617 | 65 | 283 | 6.1 | 8.7 | 0.00 | 0.41 | 0.10 | 53 | 1015.1 |
| 20260505185117 | 65 | 260 | 6.1 | 8.7 | 0.00 | 0.41 | 0.10 | 55 | 1015.1 |
| 20260505184615 | 66 | 260 | 6.1 | 8.7 | 0.00 | 0.41 | 0.10 | 55 | 1015.1 |
| 20260505184117 | 66 | 260 | 3.5 | 6.1 | 0.00 | 0.41 | 0.10 | 55 | 1015.1 |
| 20260505183617 | 65 | 260 | 5.2 | 8.7 | 0.00 | 0.41 | 0.10 | 57 | 1015.2 |
| 20260505183117 | 65 | 238 | 5.2 | 7.8 | 0.00 | 0.41 | 0.10 | 57 | 1015.2 |
| 20260505182635 | 65 | 260 | 7.0 | 9.6 | 0.00 | 0.41 | 0.10 | 59 | 1015.2 |
| 20260505182137 | 65 | 260 | 4.3 | 7.0 | 0.00 | 0.41 | 0.10 | 61 | 1015.1 |
| 20260505181617 | 65 | 283 | 4.3 | 6.1 | 0.00 | 0.41 | 0.10 | 59 | 1015.1 |
| 20260505181117 | 64 | 283 | 4.3 | 6.1 | 0.00 | 0.41 | 0.10 | 60 | 1015.0 |
| 20260505180617 | 64 | 238 | 7.0 | 8.7 | 0.00 | 0.41 | 0.10 | 56 | 1015.0 |
| 20260505180117 | 64 | 283 | 6.1 | 8.7 | 0.00 | 0.41 | 0.10 | 61 | 1015.0 |
| 20260505175616 | 64 | 283 | 6.1 | 8.7 | 0.00 | 0.41 | 0.10 | 64 | 1014.9 |
| 20260505175117 | 64 | 260 | 4.3 | 6.1 | 0.00 | 0.41 | 0.10 | 64 | 1015.0 |
| 20260505174617 | 64 | 283 | 5.2 | 9.6 | 0.00 | 0.41 | 0.10 | 65 | 1014.9 |
| 20260505174238 | 64 | 260 | 7.0 | 12.2 | 0.00 | 0.41 | 0.10 | 64 | 1014.9 |
| 20260505173617 | 64 | 283 | 6.1 | 9.6 | 0.00 | 0.41 | 0.10 | 63 | 1014.8 |
| 20260505173117 | 65 | 283 | 7.0 | 9.6 | 0.00 | 0.41 | 0.10 | 63 | 1014.7 |
| 20260505172617 | 65 | 283 | 4.3 | 7.0 | 0.00 | 0.41 | 0.10 | 62 | 1014.7 |
| 20260505172117 | 64 | 260 | 4.3 | 6.1 | 0.00 | 0.41 | 0.10 | 63 | 1014.7 |
| 20260505171637 | 64 | 260 | 4.3 | 6.1 | 0.00 | 0.41 | 0.10 | 64 | 1014.6 |
| 20260505171117 | 64 | 260 | 3.5 | 11.3 | 0.00 | 0.41 | 0.10 | 65 | 1014.6 |
| 20260505170617 | 64 | 260 | 3.5 | 6.1 | 0.00 | 0.41 | 0.10 | 67 | 1014.6 |
| 20260505170117 | 63 | 260 | 2.6 | 4.3 | 0.00 | 0.41 | 0.10 | 71 | 1014.6 |
| 20260505165617 | 63 | 260 | 5.2 | 8.7 | 0.00 | 0.41 | 0.10 | 69 | 1014.5 |
| 20260505165135 | 64 | 260 | 5.2 | 7.8 | 0.00 | 0.41 | 0.10 | 70 | 1014.5 |
| 20260505164657 | 63 | 283 | 4.3 | 7.0 | 0.00 | 0.41 | 0.10 | 69 | 1014.4 |
| 20260505164117 | 63 | 283 | 3.5 | 6.1 | 0.00 | 0.41 | 0.10 | 70 | 1014.4 |
| 20260505163617 | 63 | 260 | 5.2 | 7.8 | 0.00 | 0.41 | 0.10 | 70 | 1014.4 |
| 20260505163117 | 63 | 260 | 4.3 | 7.0 | 0.00 | 0.41 | 0.10 | 71 | 1014.3 |
| 20260505162617 | 63 | 260 | 2.6 | 3.5 | 0.00 | 0.41 | 0.10 | 72 | 1014.2 |
| 20260505162117 | 62 | 260 | 3.5 | 6.1 | 0.00 | 0.41 | 0.10 | 72 | 1014.2 |
| 20260505161617 | 62 | 260 | 2.6 | 4.3 | 0.00 | 0.41 | 0.10 | 73 | 1014.2 |
| 20260505161117 | 62 | 260 | 3.5 | 6.1 | 0.00 | 0.41 | 0.10 | 76 | 1014.1 |
| 20260505160617 | 61 | 238 | 5.2 | 9.6 | 0.00 | 0.41 | 0.10 | 76 | 1014.1 |
| 20260505160117 | 61 | 215 | 2.6 | 4.3 | 0.00 | 0.41 | 0.10 | 81 | 1014.0 |
| 20260505153117 | 58 | 260 | 2.6 | 5.2 | 0.00 | 0.41 | 0.10 | 98 | 1014.1 |
| 20260505152617 | 57 | 305 | 2.6 | 4.3 | 0.00 | 0.41 | 0.10 | 98 | 1014.0 |
| 20260505152137 | 57 | 260 | 3.5 | 6.1 | 0.00 | 0.41 | 0.10 | 98 | 1014.0 |
| 20260505151617 | 57 | 283 | 2.6 | 5.2 | 0.00 | 0.41 | 0.10 | 98 | 1014.0 |
| 20260505151117 | 56 | 260 | 2.6 | 3.5 | 0.00 | 0.41 | 0.10 | 98 | 1014.0 |
| 20260505150617 | 56 | 260 | 2.6 | 4.3 | 0.00 | 0.41 | 0.10 | 98 | 1014.0 |
| 20260505150117 | 56 | 283 | 2.6 | 3.5 | 0.00 | 0.41 | 0.10 | 98 | 1014.0 |
| 20260505140617 | 54 | 0.0 | 1.7 | 0.00 | 0.41 | 0.10 | 98 | 1013.6 | |
| 20260505140136 | 54 | 283 | 0.9 | 2.6 | 0.00 | 0.41 | 0.10 | 98 | 1013.7 |
| 20260505130116 | 54 | 0.0 | 0.0 | 0.00 | 0.41 | 0.10 | 98 | 1013.6 | |
| 20260505124616 | 54 | 283 | 0.9 | 0.9 | 0.00 | 0.41 | 0.10 | 98 | 1013.5 |
| 20260505124116 | 54 | 283 | 0.9 | 0.9 | 0.00 | 0.41 | 0.10 | 98 | 1013.5 |
| 20260505123617 | 54 | 0.0 | 0.0 | 0.00 | 0.41 | 0.10 | 98 | 1013.5 | |
| 20260505123117 | 54 | 0.0 | 0.0 | 0.00 | 0.41 | 0.10 | 98 | 1013.5 | |
| 20260505122617 | 54 | 0.0 | 0.0 | 0.00 | 0.41 | 0.10 | 98 | 1013.4 | |
| 20260505122116 | 54 | 0.0 | 0.0 | 0.00 | 0.41 | 0.10 | 98 | 1013.4 | |
| 20260505121616 | 54 | 0.0 | 0.0 | 0.00 | 0.41 | 0.10 | 98 | 1013.3 | |
| 20260505121116 | 54 | 0.0 | 0.0 | 0.00 | 0.41 | 0.10 | 98 | 1013.3 | |
| 20260505120616 | 54 | 0.0 | 0.0 | 0.00 | 0.41 | 0.10 | 98 | 1013.3 | |
| 20260505120116 | 53 | 0.0 | 0.0 | 0.00 | 0.41 | 0.10 | 98 | 1013.4 | |
| 20260505115616 | 54 | 0.0 | 0.0 | 0.00 | 0.41 | 0.10 | 98 | 1013.4 | |
| 20260505115116 | 54 | 0.0 | 0.0 | 0.00 | 0.41 | 0.10 | 98 | 1013.4 | |
| 20260505114616 | 54 | 0.0 | 0.0 | 0.00 | 0.41 | 0.10 | 98 | 1013.4 | |
| 20260505114116 | 54 | 0.0 | 0.0 | 0.00 | 0.41 | 0.10 | 98 | 1013.4 | |
| 20260505113617 | 54 | 0.0 | 0.0 | 0.02 | 0.41 | 0.10 | 98 | 1013.4 | |
| 20260505113116 | 54 | 0.0 | 0.0 | 0.02 | 0.41 | 0.10 | 98 | 1013.4 | |
| 20260505112616 | 54 | 0.0 | 0.0 | 0.02 | 0.41 | 0.10 | 98 | 1013.4 | |
| 20260505112116 | 54 | 0.0 | 0.9 | 0.02 | 0.41 | 0.10 | 98 | 1013.5 | |
| 20260505111617 | 54 | 58 | 0.9 | 2.6 | 0.02 | 0.41 | 0.10 | 98 | 1013.5 |
| 20260505111136 | 54 | 0.0 | 0.9 | 0.02 | 0.41 | 0.10 | 98 | 1013.5 | |
| 20260505110617 | 54 | 35 | 0.9 | 0.9 | 0.02 | 0.41 | 0.10 | 98 | 1013.6 |
| 20260505110116 | 54 | 0.0 | 0.0 | 0.02 | 0.41 | 0.10 | 98 | 1013.5 | |
| 20260505102137 | 55 | 0.0 | 0.0 | 0.02 | 0.39 | 0.08 | 98 | 1013.5 | |
| 20260505101616 | 55 | 0.0 | 0.0 | 0.02 | 0.39 | 0.08 | 98 | 1013.5 | |
| 20260505101116 | 55 | 0.0 | 0.0 | 0.02 | 0.39 | 0.08 | 98 | 1013.5 | |
| 20260505100616 | 55 | 0.0 | 0.9 | 0.02 | 0.39 | 0.08 | 98 | 1013.4 | |
| 20260505100116 | 55 | 0.0 | 0.0 | 0.02 | 0.39 | 0.08 | 98 | 1013.5 | |
| 20260505095616 | 56 | 0.0 | 0.0 | 0.02 | 0.39 | 0.08 | 98 | 1013.5 | |
| 20260505095136 | 56 | 0.0 | 0.0 | 0.02 | 0.39 | 0.08 | 98 | 1013.5 | |
| 20260505094616 | 56 | 0.0 | 0.0 | 0.02 | 0.39 | 0.08 | 98 | 1013.6 | |
| 20260505094116 | 56 | 0.0 | 0.0 | 0.01 | 0.38 | 0.07 | 98 | 1013.7 | |
| 20260505093616 | 55 | 0.0 | 0.9 | 0.00 | 0.37 | 0.06 | 98 | 1013.8 | |
| 20260505093116 | 55 | 148 | 0.9 | 1.7 | 0.00 | 0.37 | 0.06 | 98 | 1013.8 |
| 20260505092616 | 55 | 0.0 | 0.9 | 0.00 | 0.37 | 0.06 | 98 | 1013.8 | |
| 20260505092116 | 56 | 148 | 1.7 | 2.6 | 0.00 | 0.37 | 0.06 | 98 | 1014.0 |
| 20260505091616 | 55 | 0.0 | 0.0 | 0.00 | 0.37 | 0.06 | 98 | 1014.0 | |
| 20260505091116 | 55 | 170 | 1.7 | 2.6 | 0.00 | 0.37 | 0.06 | 98 | 1014.1 |
| 20260505090616 | 55 | 170 | 0.9 | 1.7 | 0.00 | 0.37 | 0.06 | 98 | 1014.1 |
| 20260505090116 | 55 | 148 | 0.9 | 1.7 | 0.00 | 0.37 | 0.06 | 98 | 1014.2 |
| 20260505085616 | 55 | 148 | 0.9 | 0.9 | 0.00 | 0.37 | 0.06 | 98 | 1014.1 |
| 20260505085116 | 55 | 148 | 1.7 | 1.7 | 0.00 | 0.37 | 0.06 | 97 | 1014.2 |
| 20260505084616 | 55 | 125 | 1.7 | 1.7 | 0.00 | 0.37 | 0.06 | 97 | 1014.2 |
| 20260505084116 | 55 | 148 | 0.9 | 1.7 | 0.01 | 0.37 | 0.06 | 97 | 1014.2 |
| 20260505083616 | 55 | 125 | 0.9 | 0.9 | 0.02 | 0.37 | 0.06 | 97 | 1014.2 |
| 20260505083116 | 55 | 125 | 0.9 | 1.7 | 0.04 | 0.37 | 0.06 | 97 | 1014.3 |
| 20260505082616 | 55 | 125 | 0.9 | 1.7 | 0.04 | 0.37 | 0.06 | 97 | 1014.3 |
| 20260505082136 | 55 | 148 | 2.6 | 4.3 | 0.04 | 0.37 | 0.06 | 97 | 1014.4 |
| 20260505081616 | 55 | 125 | 2.6 | 3.5 | 0.05 | 0.37 | 0.06 | 97 | 1014.5 |
| 20260505081116 | 55 | 125 | 1.7 | 2.6 | 0.05 | 0.37 | 0.06 | 97 | 1014.5 |
| 20260505080616 | 55 | 125 | 1.7 | 2.6 | 0.05 | 0.37 | 0.06 | 97 | 1014.5 |
| 20260505080116 | 56 | 148 | 0.9 | 2.6 | 0.05 | 0.37 | 0.06 | 97 | 1014.6 |
| 20260505075636 | 56 | 148 | 0.9 | 0.9 | 0.06 | 0.37 | 0.06 | 97 | 1014.5 |
| 20260505075116 | 56 | 125 | 1.7 | 2.6 | 0.08 | 0.37 | 0.06 | 97 | 1014.5 |
| 20260505074616 | 55 | 125 | 3.5 | 4.3 | 0.11 | 0.37 | 0.06 | 97 | 1014.6 |
| 20260505074156 | 55 | 125 | 1.7 | 3.5 | 0.11 | 0.36 | 0.05 | 97 | 1014.7 |
| 20260505073630 | 55 | 148 | 2.6 | 3.5 | 0.10 | 0.35 | 0.04 | 97 | 1014.9 |
| 20260505073610 | 55 | 125 | 1.7 | 2.6 | 0.11 | 0.33 | 0.02 | 97 | 1014.8 |
| 20260505072856 | 55 | 148 | 1.7 | 4.3 | 0.11 | 0.33 | 0.02 | 97 | 1014.8 |
| 20260505072336 | 55 | 103 | 1.7 | 2.6 | 0.13 | 0.33 | 0.02 | 97 | 1014.8 |
| 20260505071816 | 55 | 125 | 1.7 | 1.7 | 0.15 | 0.33 | 0.02 | 97 | 1014.8 |
| 20260505071336 | 56 | 125 | 0.9 | 1.7 | 0.15 | 0.32 | 0.01 | 97 | 1014.8 |
| 20260505070836 | 56 | 125 | 2.6 | 3.5 | 0.16 | 0.32 | 0.01 | 97 | 1014.8 |
| 20260505070316 | 55 | 0.0 | 0.9 | 0.20 | 0.32 | 0.01 | 97 | 1014.8 | |
| 20260505065836 | 55 | 0.0 | 0.9 | 0.22 | 0.31 | 0.31 | 97 | 1014.8 | |
| 20260505065316 | 55 | 0.0 | 0.9 | 0.22 | 0.30 | 0.30 | 97 | 1014.8 | |
| 20260505064816 | 55 | 0.0 | 0.9 | 0.21 | 0.28 | 0.28 | 97 | 1014.8 | |
| 20260505064317 | 56 | 103 | 0.9 | 1.7 | 0.20 | 0.26 | 0.26 | 97 | 1014.9 |
| 20260505063816 | 56 | 0.0 | 0.9 | 0.20 | 0.25 | 0.25 | 97 | 1014.8 | |
| 20260505063316 | 56 | 148 | 1.7 | 2.6 | 0.18 | 0.23 | 0.23 | 97 | 1014.8 |
| 20260505062817 | 56 | 148 | 1.7 | 1.7 | 0.17 | 0.22 | 0.22 | 97 | 1014.8 |
| 20260505062316 | 56 | 148 | 1.7 | 2.6 | 0.16 | 0.20 | 0.20 | 97 | 1014.8 |
| 20260505061816 | 56 | 125 | 1.7 | 1.7 | 0.15 | 0.18 | 0.18 | 97 | 1014.7 |
| 20260505061316 | 56 | 125 | 1.7 | 1.7 | 0.14 | 0.17 | 0.17 | 97 | 1014.8 |
| 20260505060816 | 56 | 125 | 1.7 | 1.7 | 0.13 | 0.16 | 0.16 | 97 | 1014.8 |
| 20260505060316 | 56 | 0.0 | 0.9 | 0.09 | 0.12 | 0.12 | 97 | 1014.9 | |
| 20260505055816 | 56 | 125 | 1.7 | 1.7 | 0.06 | 0.09 | 0.09 | 97 | 1014.9 |
| 20260505055437 | 56 | 148 | 0.9 | 1.7 | 0.05 | 0.08 | 0.08 | 97 | 1014.8 |
| 20260505054816 | 56 | 148 | 0.9 | 0.9 | 0.04 | 0.07 | 0.07 | 97 | 1014.9 |
| 20260505054316 | 56 | 0.0 | 0.9 | 0.03 | 0.06 | 0.06 | 97 | 1014.8 | |
| 20260505053816 | 56 | 148 | 1.7 | 2.6 | 0.02 | 0.05 | 0.05 | 97 | 1014.9 |
| 20260505053316 | 56 | 125 | 1.7 | 2.6 | 0.02 | 0.05 | 0.05 | 97 | 1014.9 |
| 20260505052816 | 56 | 148 | 0.9 | 1.7 | 0.02 | 0.05 | 0.05 | 97 | 1014.9 |
| 20260505052316 | 56 | 170 | 0.9 | 1.7 | 0.01 | 0.04 | 0.04 | 97 | 1014.9 |
| 20260505051816 | 56 | 170 | 1.7 | 2.6 | 0.00 | 0.03 | 0.03 | 97 | 1014.9 |
| 20260505051316 | 57 | 125 | 0.9 | 1.7 | 0.00 | 0.03 | 0.03 | 97 | 1015.0 |
| 20260505050816 | 56 | 170 | 1.7 | 2.6 | 0.00 | 0.03 | 0.03 | 97 | 1015.0 |
| 20260505050316 | 57 | 0.0 | 0.0 | 0.00 | 0.03 | 0.03 | 97 | 1015.1 | |
| 20260505041316 | 57 | 0.0 | 0.0 | 0.00 | 0.03 | 0.03 | 97 | 1015.2 | |
| 20260505040816 | 57 | 0.0 | 0.0 | 0.00 | 0.03 | 0.03 | 97 | 1015.2 | |
| 20260505040316 | 56 | 0.0 | 0.9 | 0.00 | 0.03 | 0.03 | 96 | 1015.1 | |
| 20260505035816 | 56 | 238 | 0.9 | 0.9 | 0.00 | 0.03 | 0.03 | 96 | 1015.1 |
| 20260505035316 | 56 | 0.0 | 0.9 | 0.00 | 0.03 | 0.03 | 96 | 1015.0 | |
| 20260505034816 | 56 | 0.0 | 0.9 | 0.00 | 0.03 | 0.03 | 96 | 1015.0 | |
| 20260505034316 | 56 | 238 | 2.6 | 3.5 | 0.00 | 0.03 | 0.03 | 96 | 1014.9 |
| 20260505033816 | 56 | 0.0 | 0.9 | 0.00 | 0.03 | 0.03 | 96 | 1014.9 | |
| 20260505033316 | 56 | 215 | 1.7 | 3.5 | 0.00 | 0.03 | 0.03 | 96 | 1014.9 |
| 20260505032816 | 56 | 193 | 1.7 | 2.6 | 0.00 | 0.03 | 0.03 | 96 | 1014.8 |
| 20260505032316 | 56 | 238 | 1.7 | 2.6 | 0.01 | 0.03 | 0.03 | 96 | 1014.7 |
| 20260505031836 | 56 | 238 | 1.7 | 3.5 | 0.02 | 0.03 | 0.03 | 96 | 1014.7 |
| 20260505031316 | 56 | 238 | 1.7 | 3.5 | 0.03 | 0.03 | 0.03 | 96 | 1014.7 |
| 20260505030816 | 56 | 215 | 2.6 | 4.3 | 0.03 | 0.03 | 0.03 | 95 | 1014.6 |
| 20260505030316 | 56 | 148 | 1.7 | 6.1 | 0.03 | 0.03 | 0.03 | 95 | 1014.7 |
| 20260505025816 | 57 | 238 | 2.6 | 5.2 | 0.03 | 0.03 | 0.03 | 95 | 1014.7 |
| 20260505025316 | 57 | 170 | 2.6 | 5.2 | 0.03 | 0.03 | 0.03 | 95 | 1014.7 |
| 20260505024816 | 57 | 238 | 0.9 | 2.6 | 0.03 | 0.03 | 0.03 | 95 | 1014.6 |
| 20260505024316 | 57 | 170 | 2.6 | 5.2 | 0.03 | 0.03 | 0.03 | 95 | 1014.6 |
| 20260505023816 | 57 | 170 | 0.9 | 1.7 | 0.03 | 0.03 | 0.03 | 94 | 1014.7 |
| 20260505023316 | 58 | 148 | 3.5 | 5.2 | 0.03 | 0.03 | 0.03 | 94 | 1014.7 |
| 20260505022816 | 58 | 170 | 2.6 | 4.3 | 0.03 | 0.03 | 0.03 | 92 | 1014.8 |
| 20260505022316 | 60 | 170 | 3.5 | 6.1 | 0.02 | 0.02 | 0.02 | 89 | 1014.8 |
| 20260505021816 | 61 | 148 | 3.5 | 6.1 | 0.01 | 0.01 | 0.01 | 81 | 1014.7 |
| 20260505021316 | 62 | 215 | 3.5 | 7.0 | 0.00 | 0.00 | 0.00 | 76 | 1014.6 |
| 20260505020816 | 62 | 238 | 3.5 | 7.0 | 0.00 | 0.00 | 0.00 | 73 | 1014.6 |
| 20260505020316 | 63 | 170 | 1.7 | 1.7 | 0.00 | 0.00 | 0.00 | 73 | 1014.5 |
| 20260505015816 | 63 | 283 | 0.9 | 0.9 | 0.00 | 0.00 | 0.00 | 71 | 1014.5 |
| 20260505015316 | 63 | 260 | 3.5 | 4.3 | 0.00 | 0.00 | 0.00 | 67 | 1014.5 |
| 20260505014816 | 63 | 260 | 4.3 | 6.1 | 0.00 | 0.00 | 0.00 | 66 | 1014.5 |
| 20260505014316 | 63 | 260 | 1.7 | 3.5 | 0.00 | 0.00 | 0.00 | 65 | 1014.4 |
| 20260505013856 | 63 | 260 | 5.2 | 7.8 | 0.00 | 0.00 | 0.00 | 66 | 1014.5 |
| 20260505013316 | 63 | 283 | 6.1 | 8.7 | 0.00 | 0.00 | 0.00 | 65 | 1014.5 |
| 20260505012816 | 63 | 283 | 3.5 | 7.0 | 0.00 | 0.00 | 0.00 | 67 | 1014.5 |